EW6467 Weather Reports


Display with metric or nautical units.
time (UTC)temp
F
wind
direction
speed
MPH
gust
MPH
rain 1hr
in
rain 24hr
in
rain mn
in
humidity
%
barometer
mb
20190222231705 28 355 0.0 0.0 0.00 0.00 0.00 69 1024.2
20190222231204 28 90 0.0 0.0 0.00 0.00 0.00 71 1024.3
20190222230704 28 90 0.0 0.0 0.00 0.00 0.00 72 1024.4
20190222230204 28 90 0.0 0.0 0.00 0.00 0.00 70 1024.4
20190222225704 28 91 0.0 0.0 0.00 0.00 0.00 74 1024.4
20190222225204 27 91 0.0 0.0 0.00 0.00 0.00 74 1024.4
20190222224704 27 91 0.0 0.0 0.00 0.00 0.00 74 1024.3
20190222224204 27 92 0.0 0.0 0.00 0.00 0.00 76 1024.3
20190222223704 27 92 0.0 0.0 0.00 0.00 0.00 75 1024.3
20190222223205 27 92 0.0 0.0 0.00 0.00 0.00 74 1024.2
20190222222704 27 92 0.0 0.0 0.00 0.00 0.00 76 1024.2
20190222222204 26 92 0.0 0.0 0.00 0.00 0.00 76 1024.1
20190222221704 26 88 0.0 0.0 0.00 0.00 0.00 78 1024.2
20190222221204 26 138 0.0 0.0 0.00 0.00 0.00 77 1024.1
20190222220704 26 138 0.0 0.0 0.00 0.00 0.00 79 1024.1
20190222220204 26 138 0.0 0.0 0.00 0.00 0.00 78 1024.2
20190222215704 26 138 0.0 0.0 0.00 0.00 0.00 79 1024.2
20190222215204 26 138 0.0 0.0 0.00 0.00 0.00 79 1024.2
20190222214704 25 130 0.0 0.0 0.00 0.00 0.00 79 1024.1
20190222214203 25 135 0.0 0.0 0.00 0.00 0.00 79 1024.1
20190222213705 25 115 0.0 0.0 0.00 0.00 0.00 79 1023.9
20190222213204 25 128 0.0 0.0 0.00 0.00 0.00 78 1023.9
20190222212704 25 128 0.0 0.0 0.00 0.00 0.00 79 1023.8
20190222212204 25 139 0.0 0.0 0.00 0.00 0.00 79 1023.8
20190222211704 25 139 0.0 0.0 0.00 0.00 0.00 79 1023.7
20190222211204 25 136 0.0 0.0 0.00 0.00 0.00 78 1023.7
20190222210704 25 136 0.0 0.0 0.00 0.00 0.00 78 1023.6
20190222210204 25 136 0.0 0.0 0.00 0.00 0.00 77 1023.5
20190222205704 25 136 0.0 0.0 0.00 0.00 0.00 78 1023.5
20190222205204 25 136 0.0 0.0 0.00 0.00 0.00 79 1023.4
20190222204704 25 136 0.0 0.0 0.00 0.00 0.00 78 1023.4
20190222204204 25 136 0.0 0.0 0.00 0.00 0.00 79 1023.4
20190222203705 25 136 0.0 0.0 0.00 0.00 0.00 80 1023.4
20190222203204 25 136 0.0 0.0 0.00 0.00 0.00 79 1023.3
20190222202704 25 136 0.0 0.0 0.00 0.00 0.00 79 1023.3
20190222202204 25 136 0.0 0.0 0.00 0.00 0.00 78 1023.2
20190222201704 25 136 0.0 0.0 0.00 0.00 0.00 77 1023.1
20190222201204 25 136 0.0 0.0 0.00 0.00 0.00 76 1023.0
20190222200705 25 136 0.0 0.0 0.00 0.00 0.00 75 1022.9
20190222200204 25 33 0.0 0.0 0.00 0.00 0.00 73 1022.9
20190222195704 25 50 0.0 0.0 0.00 0.00 0.00 74 1022.7
20190222195204 25 25 0.0 0.0 0.00 0.00 0.00 75 1022.7
20190222194705 25 12 0.0 0.0 0.00 0.00 0.00 75 1022.7
20190222194203 25 30 0.0 0.0 0.00 0.00 0.00 76 1022.6
20190222193704 25 38 0.0 2.0 0.00 0.00 0.00 76 1022.5
20190222193204 25 57 0.0 0.0 0.00 0.00 0.00 76 1022.5
20190222192704 24 40 0.0 0.0 0.00 0.00 0.00 76 1022.4
20190222192204 24 50 0.0 0.0 0.00 0.00 0.00 77 1022.3
20190222191705 24 35 0.0 0.0 0.00 0.00 0.00 77 1022.3
20190222191204 24 53 0.0 0.0 0.00 0.00 0.00 76 1022.1
20190222190705 24 66 0.0 0.0 0.00 0.00 0.00 77 1022.1
20190222190204 24 27 0.0 0.0 0.00 0.00 0.00 77 1021.9
20190222185704 24 47 0.0 0.0 0.00 0.00 0.00 77 1021.8
20190222185204 24 36 0.0 0.0 0.00 0.00 0.00 77 1021.9
20190222184704 24 57 0.0 0.0 0.00 0.00 0.00 77 1021.9
20190222184205 24 54 0.0 0.0 0.00 0.00 0.00 77 1021.9
20190222183705 24 52 0.0 0.0 0.00 0.00 0.00 77 1021.8
20190222183204 24 42 0.0 1.0 0.00 0.00 0.00 77 1021.7
20190222182704 24 49 0.0 0.0 0.00 0.00 0.00 77 1021.8
20190222182204 24 49 0.0 0.0 0.00 0.00 0.00 76 1021.7
20190222181704 24 50 0.0 0.0 0.00 0.00 0.00 76 1021.7
20190222181205 24 50 0.0 3.0 0.00 0.00 0.00 76 1021.8
20190222180705 24 16 0.0 0.0 0.00 0.00 0.00 76 1021.8
20190222180204 24 46 0.0 1.0 0.00 0.00 0.00 76 1021.7
20190222175704 23 49 0.0 1.0 0.00 0.00 0.00 76 1021.6
20190222175204 23 8 0.0 0.0 0.00 0.00 0.00 77 1021.6
20190222174704 23 41 0.0 0.0 0.00 0.00 0.00 79 1021.7
20190222174204 23 17 0.0 1.0 0.00 0.00 0.00 79 1021.7
20190222173703 23 24 0.0 1.0 0.00 0.00 0.00 79 1021.7
20190222173204 23 30 0.0 0.0 0.00 0.00 0.00 80 1021.8
20190222172704 23 355 0.0 1.0 0.00 0.00 0.00 81 1021.8
20190222172205 22 44 0.0 0.0 0.00 0.00 0.00 81 1021.7
20190222171704 22 45 0.0 0.0 0.00 0.00 0.00 83 1021.6
20190222171204 22 16 0.0 0.0 0.00 0.00 0.00 83 1021.6
20190222170704 21 4 0.0 0.0 0.00 0.00 0.00 83 1021.5
20190222170204 21 24 0.0 0.0 0.00 0.00 0.00 84 1021.4
20190222165704 21 8 0.0 0.0 0.00 0.00 0.00 85 1021.2
20190222165205 20 0 0.0 0.0 0.00 0.00 0.00 86 1021.0
20190222164705 20 356 0.0 0.0 0.00 0.00 0.00 88 1020.9
20190222164204 20 24 0.0 0.0 0.00 0.00 0.00 88 1020.9
20190222163704 20 27 0.0 0.0 0.00 0.00 0.00 88 1020.8
20190222163204 20 53 0.0 0.0 0.00 0.00 0.00 88 1020.8
20190222162705 20 24 0.0 0.0 0.00 0.00 0.00 88 1020.8
20190222162203 20 325 0.0 0.0 0.00 0.00 0.00 88 1020.8
20190222161704 20 315 0.0 0.0 0.00 0.00 0.00 88 1020.7
20190222161204 20 331 0.0 0.0 0.00 0.00 0.00 88 1020.7
20190222160704 20 355 0.0 0.0 0.00 0.00 0.00 87 1020.7
20190222160204 20 355 0.0 0.0 0.00 0.00 0.00 87 1020.6
20190222155704 20 30 0.0 0.0 0.00 0.00 0.00 87 1020.6
20190222155204 20 24 0.0 0.0 0.00 0.00 0.00 88 1020.7
20190222154704 20 5 0.0 0.0 0.00 0.00 0.00 88 1020.7
20190222154204 20 5 0.0 0.0 0.00 0.00 0.00 87 1020.6
20190222153704 20 330 0.0 0.0 0.00 0.00 0.00 87 1020.4
20190222153203 20 330 0.0 0.0 0.00 0.00 0.00 86 1020.3
20190222152704 20 330 0.0 0.0 0.00 0.00 0.00 86 1020.4
20190222152204 20 330 0.0 0.0 0.00 0.00 0.00 86 1020.1
20190222151704 20 350 0.0 2.0 0.00 0.00 0.00 85 1020.0
20190222151204 20 338 0.0 0.0 0.00 0.00 0.00 86 1019.9
20190222150704 20 7 0.0 1.0 0.00 0.00 0.00 87 1019.9
20190222150205 20 358 0.0 0.0 0.00 0.00 0.00 88 1020.0
20190222145704 19 7 0.0 0.0 0.00 0.00 0.00 89 1020.0
20190222145205 19 44 0.0 0.0 0.00 0.00 0.00 89 1019.9
20190222144704 19 57 0.0 0.0 0.00 0.00 0.00 88 1019.8
20190222144205 19 45 0.0 0.0 0.00 0.00 0.00 88 1019.8
20190222143704 19 45 0.0 0.0 0.00 0.00 0.00 87 1019.9
20190222143204 20 45 0.0 0.0 0.00 0.00 0.00 87 1019.8
20190222142704 20 45 0.0 0.0 0.00 0.00 0.00 87 1019.8
20190222142204 20 45 0.0 0.0 0.00 0.00 0.00 87 1019.6
20190222141704 21 5 0.0 0.0 0.00 0.00 0.00 87 1019.6
20190222141204 21 38 0.0 0.0 0.00 0.00 0.00 87 1019.6
20190222140704 21 48 0.0 0.0 0.00 0.00 0.00 86 1019.5
20190222140204 21 30 0.0 0.0 0.00 0.00 0.00 86 1019.5
20190222135704 21 27 0.0 0.0 0.00 0.00 0.00 86 1019.4
20190222135204 21 3 0.0 0.0 0.00 0.00 0.00 85 1019.4
20190222134705 22 355 0.0 0.0 0.00 0.00 0.00 85 1019.4
20190222134205 22 355 0.0 0.0 0.00 0.00 0.00 85 1019.2
20190222133704 22 10 0.0 0.0 0.00 0.00 0.00 85 1019.0
20190222133204 22 335 0.0 0.0 0.00 0.00 0.00 85 1019.0
20190222132704 22 323 0.0 0.0 0.00 0.00 0.00 84 1018.8
20190222132204 22 341 0.0 0.0 0.00 0.00 0.00 84 1018.8
20190222131704 22 332 0.0 0.0 0.00 0.00 0.00 83 1018.8
20190222131204 22 333 0.0 0.0 0.00 0.00 0.00 82 1018.9
20190222130704 22 334 0.0 0.0 0.00 0.00 0.00 83 1018.9
20190222130204 22 2 0.0 0.0 0.00 0.00 0.00 82 1018.9
20190222125704 23 27 0.0 0.0 0.00 0.00 0.00 83 1018.8
20190222125204 23 341 0.0 0.0 0.00 0.00 0.00 82 1018.8
20190222124703 23 352 0.0 0.0 0.00 0.00 0.00 82 1018.8
20190222124204 23 338 0.0 0.0 0.00 0.00 0.00 82 1018.7
20190222123704 23 350 0.0 0.0 0.00 0.00 0.00 83 1018.7
20190222123204 23 16 0.0 0.0 0.00 0.00 0.00 83 1018.4
20190222122703 23 27 0.0 0.0 0.00 0.00 0.00 83 1018.4
20190222122204 24 349 0.0 0.0 0.00 0.00 0.00 82 1018.3
20190222121704 24 356 0.0 0.0 0.00 0.00 0.00 81 1018.3
20190222121204 24 1 0.0 0.0 0.00 0.00 0.00 81 1018.4
20190222120705 24 335 0.0 0.0 0.00 0.00 0.00 81 1018.3
20190222120204 24 5 0.0 3.0 0.00 0.00 0.00 82 1018.3
20190222115704 24 9 0.0 0.0 0.00 0.00 0.00 80 1018.3
20190222115205 24 14 0.0 0.0 0.00 0.00 0.00 81 1018.3
20190222114705 24 351 0.0 0.0 0.00 0.00 0.00 81 1018.2
20190222114205 24 341 0.0 2.0 0.00 0.00 0.00 82 1018.2
20190222113704 24 327 0.0 0.0 0.00 0.00 0.00 83 1018.1
20190222113204 24 6 0.0 1.0 0.00 0.00 0.00 83 1017.9
20190222112704 24 10 0.0 1.0 0.00 0.00 0.00 82 1017.9
20190222112204 24 331 0.0 0.0 0.00 0.00 0.00 83 1017.9
20190222111704 23 356 0.0 0.0 0.00 0.00 0.00 83 1017.8
20190222111204 23 357 0.0 0.0 0.00 0.00 0.00 84 1017.7
20190222110703 23 358 0.0 1.0 0.00 0.00 0.00 84 1017.6
20190222110204 23 347 0.0 0.0 0.00 0.00 0.00 83 1017.6
20190222105704 23 355 0.0 0.0 0.00 0.00 0.00 83 1017.5
20190222105204 22 357 0.0 1.0 0.00 0.00 0.00 83 1017.4
20190222104704 22 346 0.0 1.0 0.00 0.00 0.00 84 1017.5
20190222104204 22 348 0.0 0.0 0.00 0.00 0.00 85 1017.4
20190222103704 22 10 0.0 1.0 0.00 0.00 0.00 86 1017.4
20190222103204 22 348 0.0 0.0 0.00 0.00 0.00 88 1017.5
20190222102704 22 5 0.0 0.0 0.00 0.00 0.00 87 1017.5
20190222102204 22 2 0.0 0.0 0.00 0.00 0.00 87 1017.4
20190222101704 22 346 0.0 0.0 0.00 0.00 0.00 87 1017.3
20190222101204 23 331 0.0 0.0 0.00 0.00 0.00 87 1017.1
20190222100704 23 334 0.0 0.0 0.00 0.00 0.00 87 1017.1
20190222100204 22 337 0.0 0.0 0.00 0.00 0.00 87 1017.0
20190222095704 22 334 0.0 0.0 0.00 0.00 0.00 87 1016.9
20190222095204 22 338 0.0 0.0 0.00 0.00 0.00 87 1016.9
20190222094704 22 335 0.0 0.0 0.00 0.00 0.00 86 1016.8
20190222094204 22 329 0.0 0.0 0.00 0.00 0.00 86 1016.8
20190222093704 22 325 0.0 0.0 0.00 0.00 0.00 86 1016.8
20190222093204 22 327 0.0 0.0 0.00 0.00 0.00 87 1016.8
20190222092706 22 356 0.0 0.0 0.00 0.00 0.00 88 1016.8
20190222092204 21 348 0.0 0.0 0.00 0.00 0.00 89 1016.7
20190222091704 20 340 0.0 0.0 0.00 0.00 0.00 90 1016.6
20190222091204 20 5 0.0 0.0 0.00 0.00 0.00 90 1016.7
20190222090706 20 1 0.0 0.0 0.00 0.00 0.00 90 1016.6
20190222090204 20 337 0.0 0.0 0.00 0.00 0.00 90 1016.5
20190222085704 19 310 0.0 0.0 0.00 0.00 0.00 90 1016.4
20190222085203 19 309 0.0 0.0 0.00 0.00 0.00 90 1016.2
20190222084704 19 5 0.0 0.0 0.00 0.00 0.00 91 1016.0
20190222084204 20 356 0.0 0.0 0.00 0.00 0.00 91 1016.0
20190222083704 20 23 0.0 0.0 0.00 0.00 0.00 92 1015.9
20190222083203 20 24 0.0 0.0 0.00 0.00 0.00 92 1015.9
20190222082704 19 5 0.0 0.0 0.00 0.00 0.00 92 1015.9
20190222082204 19 22 0.0 0.0 0.00 0.00 0.00 93 1015.9
20190222081704 19 9 0.0 0.0 0.00 0.00 0.00 93 1016.0
20190222081204 19 15 0.0 0.0 0.00 0.00 0.00 93 1015.9
20190222080704 19 5 0.0 0.0 0.00 0.00 0.00 94 1015.8
20190222080204 19 16 0.0 0.0 0.00 0.00 0.00 94 1015.8
20190222075704 18 16 0.0 0.0 0.00 0.00 0.00 93 1015.8
20190222075204 18 34 0.0 0.0 0.00 0.00 0.00 93 1015.7
20190222074704 19 48 0.0 0.0 0.00 0.00 0.00 92 1015.6
20190222074205 19 55 0.0 0.0 0.00 0.00 0.00 93 1015.6
20190222073704 19 355 0.0 0.0 0.00 0.00 0.00 93 1015.6
20190222073203 19 355 0.0 0.0 0.00 0.00 0.00 93 1015.5
20190222072704 19 355 0.0 0.0 0.00 0.00 0.00 94 1015.4
20190222072205 19 359 0.0 0.0 0.00 0.00 0.00 95 1015.2
20190222071704 19 22 0.0 0.0 0.00 0.00 0.00 94 1015.3
20190222071204 18 55 0.0 0.0 0.00 0.00 0.00 93 1015.3
20190222070704 18 192 0.0 0.0 0.00 0.00 0.00 93 1015.3
20190222070204 18 192 0.0 0.0 0.00 0.00 0.00 93 1015.2
20190222065704 18 192 0.0 0.0 0.00 0.00 0.00 92 1015.1
20190222065204 19 192 0.0 0.0 0.00 0.00 0.00 92 1015.1
20190222064705 19 192 0.0 0.0 0.00 0.00 0.00 92 1015.0
20190222064205 19 192 0.0 0.0 0.00 0.00 0.00 93 1014.8
20190222063704 19 192 0.0 0.0 0.00 0.00 0.00 93 1014.8
20190222063204 20 192 0.0 0.0 0.00 0.00 0.00 93 1014.7
20190222062704 20 192 0.0 0.0 0.00 0.00 0.00 93 1014.5
20190222062204 20 192 0.0 0.0 0.00 0.00 0.00 93 1014.4
20190222061704 20 192 0.0 0.0 0.00 0.00 0.00 93 1014.3
20190222061204 20 192 0.0 0.0 0.00 0.00 0.00 94 1014.2
20190222060704 20 192 0.0 0.0 0.00 0.00 0.00 94 1014.2
20190222060204 20 192 0.0 0.0 0.00 0.00 0.00 93 1014.1
20190222055704 20 192 0.0 0.0 0.00 0.00 0.00 93 1014.0
20190222055204 20 192 0.0 0.0 0.00 0.00 0.00 92 1014.1
20190222054704 21 192 0.0 0.0 0.00 0.00 0.00 92 1014.1
20190222054204 21 192 0.0 0.0 0.00 0.00 0.00 93 1013.9
20190222053704 21 192 0.0 0.0 0.00 0.00 0.00 93 1013.9
20190222053204 22 180 0.0 0.0 0.00 0.00 0.00 93 1013.8
20190222052704 22 159 0.0 0.0 0.00 0.00 0.00 94 1013.9
20190222052204 22 159 0.0 0.0 0.00 0.00 0.00 94 1013.9
20190222051704 22 159 0.0 0.0 0.00 0.00 0.00 93 1013.7
20190222051204 22 159 0.0 0.0 0.00 0.00 0.00 93 1013.7
20190222050204 22 159 0.0 0.0 0.00 0.00 0.00 93 1013.6
20190222045704 22 159 0.0 0.0 0.00 0.00 0.00 93 1013.5
20190222045204 22 159 0.0 0.0 0.00 0.00 0.00 93 1013.4
20190222044704 22 159 0.0 0.0 0.00 0.00 0.00 92 1013.4
20190222044205 22 159 0.0 0.0 0.00 0.00 0.00 92 1013.4
20190222043704 23 159 0.0 0.0 0.00 0.00 0.00 93 1013.3
20190222043205 23 159 0.0 0.0 0.00 0.00 0.00 92 1013.1
20190222042704 23 159 0.0 0.0 0.00 0.00 0.00 92 1013.1
20190222042204 23 159 0.0 0.0 0.00 0.00 0.00 92 1012.9
20190222041704 23 159 0.0 0.0 0.00 0.00 0.00 92 1012.7
20190222041204 23 159 0.0 0.0 0.00 0.00 0.00 92 1012.6
20190222040704 24 159 0.0 0.0 0.00 0.00 0.00 93 1012.6
20190222040204 24 159 0.0 0.0 0.00 0.00 0.00 92 1012.6
20190222035704 24 159 0.0 0.0 0.00 0.00 0.00 92 1012.4
20190222035204 24 159 0.0 0.0 0.00 0.00 0.00 92 1012.3
20190222034704 24 142 0.0 0.0 0.00 0.00 0.00 91 1012.3
20190222034204 24 142 0.0 0.0 0.00 0.00 0.00 91 1012.3
20190222033704 25 142 0.0 0.0 0.00 0.00 0.00 92 1012.2
20190222033204 25 113 0.0 0.0 0.00 0.00 0.00 92 1012.2
20190222032704 25 109 0.0 0.0 0.00 0.00 0.00 92 1012.2
20190222032205 25 113 0.0 0.0 0.00 0.00 0.00 93 1012.0
20190222031704 25 124 0.0 0.0 0.00 0.00 0.00 92 1012.0
20190222031204 25 124 0.0 0.0 0.00 0.00 0.00 92 1011.9
20190222030704 25 126 0.0 3.0 0.00 0.00 0.00 91 1011.7
20190222030204 25 142 0.0 0.0 0.00 0.00 0.00 91 1011.7
20190222025704 25 143 0.0 0.0 0.00 0.00 0.00 91 1011.6
20190222025205 26 143 0.0 0.0 0.00 0.00 0.00 91 1011.5
20190222024704 26 138 0.0 0.0 0.00 0.00 0.00 91 1011.5
20190222024205 26 138 0.0 0.0 0.00 0.00 0.00 91 1011.4
20190222023704 26 139 0.0 0.0 0.00 0.00 0.00 91 1011.4
20190222023204 26 142 0.0 0.0 0.00 0.00 0.00 91 1011.4
20190222022704 26 161 0.0 1.0 0.00 0.00 0.00 91 1011.4
20190222022204 27 191 0.0 2.0 0.00 0.00 0.00 91 1011.2
20190222021704 27 176 0.0 0.0 0.00 0.00 0.00 90 1011.1
20190222021204 27 222 0.0 0.0 0.00 0.00 0.00 90 1011.2
20190222020704 27 184 0.0 0.0 0.00 0.00 0.00 90 1011.0
20190222020204 27 200 0.0 2.0 0.00 0.00 0.00 90 1011.0
20190222015704 27 162 0.0 1.0 0.00 0.00 0.00 90 1011.1
20190222015204 27 145 0.0 3.0 0.00 0.00 0.00 90 1011.0
20190222014705 28 195 0.0 1.0 0.00 0.00 0.00 89 1010.7
20190222014204 28 195 0.0 1.0 0.00 0.00 0.00 89 1010.8
20190222013704 28 198 0.0 2.0 0.00 0.00 0.00 90 1010.8
20190222013204 28 169 0.0 1.0 0.00 0.00 0.00 90 1011.0
20190222012704 28 195 0.0 1.0 0.00 0.00 0.00 90 1011.1
20190222012203 28 189 0.0 5.0 0.00 0.00 0.00 90 1011.0
20190222011704 28 193 0.0 3.0 0.00 0.00 0.00 89 1011.0
20190222011203 28 190 0.0 1.0 0.00 0.00 0.00 90 1010.9
20190222010705 28 194 0.0 2.0 0.00 0.00 0.00 90 1010.8
20190222010204 28 191 0.0 2.0 0.00 0.00 0.00 90 1010.8
20190222005704 28 212 0.0 1.0 0.00 0.00 0.00 90 1010.7
20190222005204 28 193 0.0 1.0 0.00 0.00 0.00 90 1010.8
20190222004705 28 186 0.0 2.0 0.00 0.00 0.00 90 1010.7
20190222004204 28 174 0.0 3.0 0.00 0.00 0.00 90 1010.7
20190222003704 28 165 0.0 2.0 0.00 0.00 0.00 90 1010.5
20190222003203 28 188 0.0 0.0 0.00 0.00 0.00 89 1010.5
20190222002704 28 171 0.0 1.0 0.00 0.00 0.00 89 1010.5
20190222002204 28 204 0.0 1.0 0.00 0.00 0.00 89 1010.5
20190222001704 28 186 0.0 1.0 0.00 0.00 0.00 89 1010.5
20190222001203 28 176 0.0 2.0 0.00 0.00 0.00 89 1010.6
20190222000705 28 191 0.0 3.0 0.00 0.00 0.00 89 1010.6
20190222000204 28 179 0.0 2.0 0.00 0.00 0.00 89 1010.6
20190221235704 29 191 0.0 3.0 0.00 0.00 0.00 90 1010.6
20190221235204 29 163 0.0 3.0 0.00 0.00 0.00 90 1010.6
20190221234704 29 184 0.0 3.0 0.00 0.00 0.00 90 1010.6
20190221234203 29 208 0.0 1.0 0.00 0.00 0.00 90 1010.6
20190221233704 29 193 0.0 3.0 0.00 0.00 0.00 91 1010.4
20190221233204 28 194 0.0 3.0 0.00 0.00 0.00 91 1010.4
20190221232704 28 200 0.0 1.0 0.00 0.00 0.00 91 1010.4
20190221232205 28 203 0.0 6.0 0.00 0.00 0.00 91 1010.4